EN

Hourly Weather Calicut

Today, 28 November, Saturday

Time Temperature Precipitation Wind Pressure Humidity
00:00 +24°C° 0 mm 2 mps 758 mmHg 87%
01:00 +24°C° 0 mm 2 mps 758 mmHg 87%
02:00 +24°C° 0 mm 2 mps 757 mmHg 87%
03:00 +24°C° 0 mm 2 mps 757 mmHg 86%
04:00 +23°C° 0 mm 2 mps 757 mmHg 86%
05:00 +23°C° 0 mm 2 mps 757 mmHg 88%
06:00 +25°C° 0 mm 2 mps 758 mmHg 82%
07:00 +26°C° 0 mm 2 mps 758 mmHg 77%
08:00 +28°C° 0 mm 2 mps 759 mmHg 71%
09:00 +30°C° 0 mm 2 mps 759 mmHg 64%
10:00 +32°C° 0 mm 1 mps 759 mmHg 56%
11:00 +35°C° 0 mm 1 mps 758 mmHg 48%
12:00 +36°C° 0 mm 2 mps 758 mmHg 49%
13:00 +36°C° 0 mm 2 mps 757 mmHg 49%
14:00 +36°C° 0 mm 2 mps 756 mmHg 49%
15:00 +34°C° 0.3 mm 2 mps 756 mmHg 61%
16:00 +31°C° 0.3 mm 2 mps 756 mmHg 73%
17:00 +29°C° 0.3 mm 2 mps 756 mmHg 85%
18:00 +28°C° 1.5 mm 2 mps 757 mmHg 88%
19:00 +27°C° 1.5 mm 1 mps 758 mmHg 91%
20:00 +26°C° 1.5 mm 1 mps 759 mmHg 93%
21:00 +26°C° 1.2 mm 1 mps 759 mmHg 94%
22:00 +26°C° 1.2 mm 1 mps 759 mmHg 94%
23:00 +25°C° 1.2 mm 1 mps 759 mmHg 94%

Tomorrow, 29 November, Sunday

Time Temperature Precipitation Wind Pressure Humidity
00:00 +25°C° 0.5 mm 2 mps 758 mmHg 94%
01:00 +25°C° 0.5 mm 2 mps 758 mmHg 94%
02:00 +25°C° 0.5 mm 2 mps 757 mmHg 94%
03:00 +25°C° 0.1 mm 2 mps 757 mmHg 94%
04:00 +25°C° 0.1 mm 1 mps 757 mmHg 94%
05:00 +24°C° 0.1 mm 1 mps 757 mmHg 94%
06:00 +25°C° 0 mm 1 mps 758 mmHg 91%
07:00 +27°C° 0 mm 1 mps 759 mmHg 87%
08:00 +28°C° 0 mm 1 mps 759 mmHg 84%
09:00 +30°C° 0 mm 1 mps 759 mmHg 74%
10:00 +32°C° 0 mm 1 mps 759 mmHg 64%
11:00 +35°C° 0 mm 1 mps 758 mmHg 54%
12:00 +34°C° 0 mm 1 mps 758 mmHg 54%
13:00 +35°C° 0 mm 2 mps 757 mmHg 54%
14:00 +35°C° 0 mm 2 mps 756 mmHg 54%
15:00 +34°C° 0.2 mm 2 mps 756 mmHg 64%
16:00 +31°C° 0.2 mm 2 mps 756 mmHg 74%
17:00 +29°C° 0.2 mm 2 mps 756 mmHg 84%
18:00 +28°C° 0.6 mm 2 mps 757 mmHg 86%
19:00 +28°C° 0.6 mm 2 mps 758 mmHg 88%
20:00 +27°C° 0.6 mm 2 mps 759 mmHg 91%
21:00 +26°C° 0.6 mm 2 mps 758 mmHg 91%
22:00 +26°C° 0.6 mm 2 mps 758 mmHg 92%
23:00 +26°C° 0.6 mm 2 mps 758 mmHg 92%

Day after tomorrow, 30 November, Monday

Time Temperature Precipitation Wind Pressure Humidity
00:00 +26°C° 0.2 mm 2 mps 758 mmHg 92%
01:00 +26°C° 0.2 mm 1 mps 757 mmHg 92%
02:00 +25°C° 0.2 mm 1 mps 757 mmHg 92%
03:00 +25°C° 0.3 mm 2 mps 757 mmHg 92%
04:00 +25°C° 0.3 mm 2 mps 757 mmHg 92%
05:00 +25°C° 0.3 mm 2 mps 757 mmHg 92%
06:00 +26°C° 0 mm 2 mps 757 mmHg 87%
07:00 +27°C° 0 mm 2 mps 758 mmHg 82%
08:00 +29°C° 0 mm 1 mps 759 mmHg 77%
09:00 +31°C° 0 mm 1 mps 758 mmHg 68%
10:00 +33°C° 0 mm 1 mps 758 mmHg 59%
11:00 +35°C° 0 mm 1 mps 758 mmHg 51%
12:00 +36°C° 0 mm 2 mps 757 mmHg 53%
13:00 +35°C° 0 mm 2 mps 757 mmHg 55%
14:00 +35°C° 0 mm 3 mps 756 mmHg 58%
15:00 +33°C° 0.4 mm 3 mps 756 mmHg 67%
16:00 +30°C° 0.4 mm 3 mps 756 mmHg 77%
17:00 +29°C° 0.4 mm 3 mps 756 mmHg 86%
18:00 +28°C° 0.3 mm 2 mps 757 mmHg 88%
19:00 +27°C° 0.3 mm 2 mps 758 mmHg 90%
20:00 +27°C° 0.3 mm 2 mps 759 mmHg 91%
21:00 +26°C° 0.2 mm 2 mps 759 mmHg 91%
22:00 +26°C° 0.2 mm 2 mps 759 mmHg 91%
23:00 +26°C° 0.2 mm 2 mps 759 mmHg 91%

1 December, Tuesday

Time Temperature Precipitation Wind Pressure Humidity
00:00 +25°C° 0.1 mm 2 mps 758 mmHg 90%
01:00 +25°C° 0.1 mm 2 mps 758 mmHg 89%
02:00 +25°C° 0.1 mm 2 mps 757 mmHg 89%
03:00 +25°C° 0 mm 2 mps 757 mmHg 88%
04:00 +24°C° 0 mm 2 mps 757 mmHg 88%
05:00 +24°C° 0 mm 2 mps 758 mmHg 88%
06:00 +25°C° 0 mm 2 mps 758 mmHg 84%
07:00 +26°C° 0 mm 2 mps 758 mmHg 81%
08:00 +27°C° 0 mm 2 mps 759 mmHg 77%
09:00 +29°C° 0 mm 1 mps 759 mmHg 65%
10:00 +32°C° 0 mm 1 mps 758 mmHg 53%
11:00 +33°C° 0 mm 0 mps 758 mmHg 40%
12:00 +35°C° 0 mm 1 mps 758 mmHg 41%
13:00 +36°C° 0 mm 2 mps 757 mmHg 41%
14:00 +35°C° 0 mm 3 mps 756 mmHg 41%
15:00 +34°C° 0 mm 2 mps 756 mmHg 51%
16:00 +31°C° 0 mm 2 mps 756 mmHg 61%
17:00 +29°C° 0 mm 1 mps 756 mmHg 71%
18:00 +28°C° 0 mm 1 mps 757 mmHg 72%
19:00 +27°C° 0 mm 1 mps 758 mmHg 74%
20:00 +26°C° 0 mm 1 mps 758 mmHg 76%
21:00 +26°C° 0 mm 1 mps 758 mmHg 76%
22:00 +26°C° 0 mm 1 mps 758 mmHg 76%
23:00 +26°C° 0 mm 2 mps 758 mmHg 77%

2 December, Wednesday

Time Temperature Precipitation Wind Pressure Humidity
00:00 +26°C° 0 mm 1 mps 758 mmHg 78%
01:00 +25°C° 0 mm 1 mps 757 mmHg 80%
02:00 +25°C° 0 mm 1 mps 757 mmHg 81%
03:00 +25°C° 0 mm 1 mps 756 mmHg 80%
04:00 +25°C° 0 mm 2 mps 756 mmHg 80%
05:00 +25°C° 0 mm 2 mps 756 mmHg 79%
06:00 +26°C° 0 mm 2 mps 757 mmHg 78%
07:00 +26°C° 0 mm 2 mps 757 mmHg 78%
08:00 +27°C° 0 mm 2 mps 758 mmHg 77%
09:00 +27°C° 0.5 mm 1 mps 758 mmHg 79%
10:00 +27°C° 0.5 mm 1 mps 758 mmHg 81%
11:00 +27°C° 0.5 mm 1 mps 758 mmHg 83%
12:00 +28°C° 0.1 mm 1 mps 757 mmHg 82%
13:00 +28°C° 0.1 mm 1 mps 756 mmHg 81%
14:00 +28°C° 0.1 mm 1 mps 755 mmHg 80%
15:00 +28°C° 0 mm 1 mps 755 mmHg 82%
16:00 +28°C° 0 mm 1 mps 755 mmHg 84%
17:00 +27°C° 0 mm 1 mps 755 mmHg 87%
18:00 +27°C° 0 mm 1 mps 756 mmHg 88%
19:00 +24°C° 0 mm 0 mps 756 mmHg 89%
20:00 +24°C° 0 mm 0 mps 757 mmHg 90%
21:00 +24°C° 0 mm 0 mps 757 mmHg 91%
22:00 +24°C° 0 mm 0 mps 757 mmHg 91%
23:00 +24°C° 0 mm 0 mps 757 mmHg 91%

3 December, Thursday

Time Temperature Precipitation Wind Pressure Humidity
00:00 +23°C° 0 mm 0 mps 756 mmHg 91%
01:00 +25°C° 0 mm 1 mps 756 mmHg 90%
02:00 +25°C° 0 mm 1 mps 755 mmHg 90%
03:00 +25°C° 0 mm 1 mps 755 mmHg 90%
04:00 +25°C° 0 mm 1 mps 756 mmHg 89%
05:00 +25°C° 0 mm 1 mps 756 mmHg 89%
06:00 +26°C° 0 mm 1 mps 756 mmHg 83%
07:00 +28°C° 0 mm 1 mps 757 mmHg 76%
08:00 +29°C° 0 mm 1 mps 757 mmHg 70%
09:00 +31°C° 0 mm 1 mps 757 mmHg 63%
10:00 +33°C° 0 mm 1 mps 757 mmHg 57%
11:00 +35°C° 0 mm 1 mps 757 mmHg 50%
12:00 +36°C° 0 mm 2 mps 756 mmHg 52%
13:00 +36°C° 0 mm 2 mps 755 mmHg 54%
14:00 +35°C° 0 mm 3 mps 754 mmHg 56%
15:00 +34°C° 0.2 mm 3 mps 754 mmHg 65%
16:00 +31°C° 0.2 mm 2 mps 755 mmHg 73%
17:00 +29°C° 0.2 mm 2 mps 755 mmHg 81%
18:00 +29°C° 0.7 mm 1 mps 756 mmHg 85%
19:00 +28°C° 0.7 mm 1 mps 756 mmHg 88%
20:00 +25°C° 0.7 mm 0 mps 757 mmHg 91%
21:00 +27°C° 1.3 mm 1 mps 757 mmHg 92%
22:00 +26°C° 1.3 mm 1 mps 757 mmHg 92%
23:00 +26°C° 1.3 mm 1 mps 757 mmHg 93%
Show more